TimeEST,TemperatureF,Dew PointF,Humidity,Sea Level PressureIn,VisibilityMPH,Wind Direction,Wind SpeedMPH,Gust SpeedMPH,PrecipitationIn,Events,Conditions,WindDirDegrees,DateUTC
12:15 AM,28.2,27.3,96,30.43,7.0,North,-9999.0,-,N/A,,Overcast,0,2013-01-27 05:15:00
12:35 AM,28.4,26.8,94,30.43,10.0,North,-9999.0,-,N/A,,Overcast,0,2013-01-27 05:35:00
12:55 AM,27.9,27.0,96,30.42,7.0,North,-9999.0,-,N/A,,Overcast,0,2013-01-27 05:55:00
1:15 AM,27.5,26.4,96,30.42,10.0,North,-9999.0,-,N/A,,Overcast,0,2013-01-27 06:15:00
1:35 AM,27.3,26.1,95,30.42,10.0,North,-9999.0,-,N/A,,Overcast,0,2013-01-27 06:35:00
1:55 AM,27.1,26.1,96,30.43,10.0,North,-9999.0,-,N/A,,Overcast,0,2013-01-27 06:55:00
2:15 AM,27.0,26.1,96,30.43,7.0,North,-9999.0,-,N/A,,Overcast,0,2013-01-27 07:15:00
2:35 AM,27.0,26.1,96,30.43,7.0,North,-9999.0,-,N/A,,Overcast,0,2013-01-27 07:35:00
2:55 AM,27.0,26.2,97,30.43,7.0,North,-9999.0,-,N/A,,Overcast,0,2013-01-27 07:55:00
3:15 AM,27.3,26.1,95,30.42,10.0,North,-9999.0,-,N/A,,Overcast,0,2013-01-27 08:15:00
3:35 AM,27.3,24.6,90,30.41,10.0,North,-9999.0,-,N/A,,Overcast,0,2013-01-27 08:35:00
3:55 AM,27.1,24.4,90,30.42,10.0,North,-9999.0,-,N/A,,Overcast,0,2013-01-27 08:55:00
4:15 AM,26.1,23.7,91,30.42,10.0,North,-9999.0,-,N/A,,Overcast,0,2013-01-27 09:15:00
4:35 AM,23.9,23.2,97,30.42,7.0,North,-9999.0,-,N/A,,Mostly Cloudy,0,2013-01-27 09:35:00
4:55 AM,22.5,21.7,97,30.43,7.0,North,-9999.0,-,N/A,,Scattered Clouds,0,2013-01-27 09:55:00
5:15 AM,21.7,21.2,98,30.42,7.0,North,-9999.0,-,N/A,,Clear,0,2013-01-27 10:15:00
5:35 AM,20.3,19.8,98,30.41,7.0,North,-9999.0,-,N/A,,Clear,0,2013-01-27 10:35:00
5:55 AM,19.4,19.0,98,30.42,7.0,North,-9999.0,-,N/A,,Clear,0,2013-01-27 10:55:00
6:15 AM,19.0,18.5,98,30.43,7.0,North,-9999.0,-,N/A,,Clear,0,2013-01-27 11:15:00
6:35 AM,18.1,17.6,98,30.43,7.0,North,-9999.0,-,N/A,,Clear,0,2013-01-27 11:35:00
6:55 AM,17.6,17.1,98,30.43,7.0,North,-9999.0,-,N/A,,Clear,0,2013-01-27 11:55:00
7:15 AM,17.6,17.2,98,30.44,7.0,North,-9999.0,-,N/A,,Clear,0,2013-01-27 12:15:00
7:35 AM,17.2,16.7,98,30.44,7.0,North,-9999.0,-,N/A,,Clear,0,2013-01-27 12:35:00
7:55 AM,17.1,16.5,98,30.45,7.0,North,-9999.0,-,N/A,,Clear,0,2013-01-27 12:55:00
8:15 AM,17.6,17.1,98,30.45,7.0,North,-9999.0,-,N/A,,Clear,0,2013-01-27 13:15:00
8:55 AM,21.2,20.1,96,30.46,7.0,North,-9999.0,-,N/A,,Clear,0,2013-01-27 13:55:00
9:15 AM,23.9,22.3,94,30.47,7.0,North,-9999.0,-,N/A,,Clear,0,2013-01-27 14:15:00
9:35 AM,26.4,23.4,88,30.47,10.0,North,-9999.0,-,N/A,,Clear,0,2013-01-27 14:35:00
9:55 AM,29.5,23.9,80,30.47,10.0,North,-9999.0,-,N/A,,Clear,0,2013-01-27 14:55:00
10:15 AM,31.6,24.6,75,30.47,10.0,North,-9999.0,-,N/A,,Clear,0,2013-01-27 15:15:00
10:35 AM,33.3,25.5,73,30.47,10.0,North,-9999.0,-,N/A,,Clear,0,2013-01-27 15:35:00
10:55 AM,34.9,25.7,69,30.47,10.0,North,-9999.0,-,N/A,,Clear,0,2013-01-27 15:55:00
11:15 AM,36.0,26.4,68,30.44,10.0,North,-9999.0,-,N/A,,Clear,0,2013-01-27 16:15:00
11:35 AM,37.2,26.8,66,30.44,10.0,North,-9999.0,-,N/A,,Clear,0,2013-01-27 16:35:00
11:55 AM,38.5,27.3,64,30.43,10.0,North,-9999.0,-,N/A,,Clear,0,2013-01-27 16:55:00
12:15 PM,39.7,27.3,61,30.42,10.0,North,-9999.0,-,N/A,,Clear,0,2013-01-27 17:15:00
12:35 PM,40.8,27.7,60,30.42,10.0,North,-9999.0,-,N/A,,Clear,0,2013-01-27 17:35:00
12:55 PM,41.5,28.2,59,30.41,10.0,North,-9999.0,-,N/A,,Clear,0,2013-01-27 17:55:00
1:15 PM,44.4,29.3,55,30.41,10.0,North,-9999.0,-,N/A,,Clear,0,2013-01-27 18:15:00
1:35 PM,45.1,29.8,55,30.40,10.0,North,-9999.0,-,N/A,,Clear,0,2013-01-27 18:35:00
1:55 PM,45.5,28.8,52,30.39,10.0,North,-9999.0,-,N/A,,Clear,0,2013-01-27 18:55:00
2:15 PM,45.1,29.1,54,30.39,10.0,North,-9999.0,-,N/A,,Clear,0,2013-01-27 19:15:00
2:35 PM,44.6,28.8,54,30.39,10.0,North,-9999.0,-,N/A,,Clear,0,2013-01-27 19:35:00
2:55 PM,44.8,28.2,52,30.39,10.0,North,-9999.0,-,N/A,,Clear,0,2013-01-27 19:55:00
3:15 PM,45.1,28.8,53,30.39,10.0,North,-9999.0,-,N/A,,Clear,0,2013-01-27 20:15:00
3:35 PM,45.0,29.5,55,30.39,10.0,North,-9999.0,-,N/A,,Clear,0,2013-01-27 20:35:00
3:55 PM,45.5,28.8,52,30.39,10.0,North,-9999.0,-,N/A,,Clear,0,2013-01-27 20:55:00
4:15 PM,45.1,28.4,52,30.39,10.0,North,-9999.0,-,N/A,,Clear,0,2013-01-27 21:15:00
4:35 PM,42.3,31.3,65,30.40,10.0,North,-9999.0,-,N/A,,Clear,0,2013-01-27 21:35:00
4:55 PM,40.1,31.6,72,30.39,10.0,North,-9999.0,-,N/A,,Scattered Clouds,0,2013-01-27 21:55:00
5:15 PM,40.5,31.8,71,30.39,10.0,North,-9999.0,-,N/A,,Overcast,0,2013-01-27 22:15:00
5:35 PM,39.4,32.0,75,30.39,10.0,North,-9999.0,-,N/A,,Overcast,0,2013-01-27 22:35:00
5:55 PM,38.5,32.2,78,30.39,10.0,North,-9999.0,-,N/A,,Overcast,0,2013-01-27 22:55:00
6:15 PM,38.1,32.0,79,30.39,10.0,North,-9999.0,-,N/A,,Overcast,0,2013-01-27 23:15:00
6:35 PM,37.4,32.0,81,30.38,10.0,North,-9999.0,-,N/A,,Overcast,0,2013-01-27 23:35:00
6:55 PM,37.6,32.0,80,30.38,10.0,North,-9999.0,-,N/A,,Overcast,0,2013-01-27 23:55:00
7:15 PM,37.4,32.0,81,30.38,10.0,North,-9999.0,-,N/A,,Overcast,0,2013-01-28 00:15:00
7:35 PM,37.4,32.0,81,30.38,10.0,North,-9999.0,-,N/A,,Overcast,0,2013-01-28 00:35:00
7:55 PM,37.0,32.2,83,30.38,10.0,North,-9999.0,-,N/A,,Overcast,0,2013-01-28 00:55:00
8:15 PM,36.9,32.7,85,30.37,10.0,North,-9999.0,-,N/A,,Overcast,0,2013-01-28 01:15:00
8:35 PM,36.5,32.7,86,30.36,10.0,North,-9999.0,-,N/A,,Overcast,0,2013-01-28 01:35:00
8:55 PM,37.2,32.0,81,30.36,10.0,North,-9999.0,-,N/A,,Overcast,0,2013-01-28 01:55:00
9:15 PM,36.9,32.4,84,30.36,10.0,North,-9999.0,-,N/A,,Overcast,0,2013-01-28 02:15:00
9:35 PM,36.9,32.7,85,30.35,10.0,North,-9999.0,-,N/A,,Overcast,0,2013-01-28 02:35:00
9:55 PM,36.7,32.9,86,30.35,10.0,North,-9999.0,-,N/A,,Overcast,0,2013-01-28 02:55:00
10:15 PM,36.5,32.9,87,30.34,10.0,North,-9999.0,-,N/A,,Overcast,0,2013-01-28 03:15:00
10:35 PM,36.5,32.9,87,30.34,10.0,North,-9999.0,-,N/A,,Overcast,0,2013-01-28 03:35:00
10:55 PM,36.5,33.4,89,30.35,10.0,North,-9999.0,-,N/A,,Overcast,0,2013-01-28 03:55:00
11:15 PM,35.8,34.7,96,30.34,7.0,North,-9999.0,-,N/A,,Overcast,0,2013-01-28 04:15:00
11:35 PM,35.8,35.6,99,30.34,2.5,North,-9999.0,-,N/A,,Overcast,0,2013-01-28 04:35:00
11:55 PM,36.0,35.8,99,30.35,3.0,North,-9999.0,-,N/A,,Overcast,0,2013-01-28 04:55:00